| time (UTC) | temp F | wind direction | speed MPH | gust MPH | rain 1hr in | rain 24hr in | rain mn in | humidity % | barometer mb |
| 20260506201007 | 83 | 121 | 10.0 | 14.0 | 0.00 | 0.01 | 0.01 | 100 | 1007.0 |
| 20260506200507 | 84 | 112 | 10.0 | 13.0 | 0.00 | 0.01 | 0.01 | 100 | 1007.0 |
| 20260506200007 | 84 | 133 | 9.0 | 14.0 | 0.00 | 0.01 | 0.01 | 100 | 1007.0 |
| 20260506195506 | 84 | 122 | 9.0 | 14.0 | 0.00 | 0.01 | 0.01 | 100 | 1007.1 |
| 20260506195005 | 84 | 117 | 9.0 | 14.0 | 0.00 | 0.01 | 0.01 | 100 | 1007.0 |
| 20260506194505 | 84 | 101 | 9.0 | 14.0 | 0.00 | 0.01 | 0.01 | 100 | 1007.1 |
| 20260506194005 | 84 | 114 | 9.0 | 12.0 | 0.00 | 0.01 | 0.01 | 100 | 1007.2 |
| 20260506193505 | 84 | 116 | 8.0 | 11.0 | 0.00 | 0.01 | 0.01 | 100 | 1007.3 |
| 20260506193005 | 84 | 121 | 8.0 | 11.0 | 0.00 | 0.01 | 0.01 | 100 | 1007.3 |
| 20260506192005 | 83 | 126 | 7.0 | 11.0 | 0.00 | 0.01 | 0.01 | 100 | 1007.5 |
| 20260506191505 | 84 | 132 | 6.0 | 9.0 | 0.00 | 0.01 | 0.01 | 100 | 1007.6 |
| 20260506191005 | 84 | 146 | 6.0 | 10.0 | 0.00 | 0.01 | 0.01 | 100 | 1007.6 |
| 20260506190504 | 84 | 157 | 7.0 | 11.0 | 0.00 | 0.01 | 0.01 | 100 | 1007.7 |
| 20260506190005 | 84 | 123 | 6.0 | 11.0 | 0.00 | 0.01 | 0.01 | 100 | 1007.7 |
| 20260506185503 | 84 | 101 | 5.0 | 11.0 | 0.00 | 0.01 | 0.01 | 100 | 1007.6 |
| 20260506184003 | 84 | 176 | 6.0 | 11.0 | 0.00 | 0.01 | 0.01 | 100 | 1007.6 |
| 20260506183503 | 84 | 114 | 6.0 | 11.0 | 0.00 | 0.01 | 0.01 | 100 | 1007.6 |
| 20260506183004 | 84 | 164 | 6.0 | 11.0 | 0.00 | 0.01 | 0.01 | 100 | 1007.7 |
| 20260506182003 | 83 | 144 | 8.0 | 12.0 | 0.00 | 0.01 | 0.01 | 100 | 1007.8 |
| 20260506181002 | 83 | 155 | 9.0 | 12.0 | 0.00 | 0.01 | 0.01 | 100 | 1008.0 |
| 20260506180501 | 82 | 134 | 9.0 | 12.0 | 0.00 | 0.01 | 0.01 | 100 | 1008.1 |
| 20260506180001 | 82 | 136 | 8.0 | 12.0 | 0.00 | 0.01 | 0.01 | 100 | 1008.2 |
| 20260506175501 | 82 | 112 | 8.0 | 14.0 | 0.00 | 0.01 | 0.01 | 100 | 1008.2 |
| 20260506175002 | 82 | 160 | 8.0 | 14.0 | 0.01 | 0.01 | 0.01 | 100 | 1008.3 |
| 20260506174501 | 82 | 146 | 8.0 | 13.0 | 0.01 | 0.01 | 0.01 | 100 | 1008.4 |
| 20260506174001 | 82 | 134 | 7.0 | 12.0 | 0.01 | 0.01 | 0.01 | 100 | 1008.3 |
| 20260506173501 | 81 | 140 | 6.0 | 10.0 | 0.01 | 0.01 | 0.01 | 100 | 1008.3 |
| 20260506172501 | 81 | 123 | 4.0 | 8.0 | 0.01 | 0.01 | 0.01 | 100 | 1008.4 |
| 20260506171500 | 81 | 144 | 2.0 | 7.0 | 0.01 | 0.01 | 0.01 | 100 | 1008.3 |
| 20260506170959 | 81 | 144 | 2.0 | 5.0 | 0.01 | 0.01 | 0.01 | 100 | 1008.5 |
| 20260506170459 | 81 | 144 | 3.0 | 6.0 | 0.01 | 0.01 | 0.01 | 100 | 1008.4 |
| 20260506165959 | 81 | 132 | 5.0 | 9.0 | 0.01 | 0.01 | 0.01 | 100 | 1008.4 |
| 20260506165500 | 81 | 115 | 6.0 | 9.0 | 0.01 | 0.01 | 0.01 | 100 | 1008.3 |
| 20260506164957 | 81 | 106 | 7.0 | 9.0 | 0.00 | 0.00 | 0.00 | 100 | 1008.2 |
| 20260506163957 | 81 | 116 | 5.0 | 9.0 | 0.00 | 0.00 | 0.00 | 100 | 1008.3 |
| 20260506163459 | 81 | 128 | 6.0 | 10.0 | 0.00 | 0.00 | 0.00 | 100 | 1008.2 |
| 20260506162457 | 81 | 138 | 8.0 | 11.0 | 0.00 | 0.00 | 0.00 | 100 | 1008.1 |
| 20260506161955 | 81 | 140 | 9.0 | 14.0 | 0.00 | 0.00 | 0.00 | 100 | 1008.1 |
| 20260506161456 | 81 | 114 | 9.0 | 14.0 | 0.00 | 0.00 | 0.00 | 100 | 1008.0 |
| 20260506160955 | 81 | 119 | 8.0 | 13.0 | 0.00 | 0.00 | 0.00 | 100 | 1008.0 |
| 20260506160453 | 81 | 130 | 7.0 | 11.0 | 0.00 | 0.00 | 0.00 | 100 | 1007.8 |
| 20260506155952 | 81 | 170 | 7.0 | 12.0 | 0.00 | 0.00 | 0.00 | 100 | 1007.7 |
| 20260506155452 | 81 | 123 | 7.0 | 12.0 | 0.00 | 0.00 | 0.00 | 100 | 1007.7 |
| 20260506153451 | 81 | 117 | 8.0 | 14.0 | 0.00 | 0.00 | 0.00 | 100 | 1007.4 |
| 20260506152952 | 81 | 115 | 8.0 | 12.0 | 0.00 | 0.00 | 0.00 | 100 | 1007.3 |
| 20260506152452 | 81 | 129 | 9.0 | 14.0 | 0.00 | 0.00 | 0.00 | 100 | 1007.3 |
| 20260506151951 | 81 | 121 | 10.0 | 14.0 | 0.00 | 0.00 | 0.00 | 100 | 1007.2 |
| 20260506151451 | 81 | 128 | 10.0 | 14.0 | 0.00 | 0.00 | 0.00 | 100 | 1007.1 |
| 20260506150952 | 81 | 132 | 9.0 | 16.0 | 0.00 | 0.00 | 0.00 | 100 | 1007.2 |
| 20260506150452 | 81 | 129 | 9.0 | 16.0 | 0.00 | 0.00 | 0.00 | 100 | 1007.2 |
| 20260506145951 | 81 | 126 | 9.0 | 15.0 | 0.00 | 0.00 | 0.00 | 100 | 1007.1 |
| 20260506145452 | 81 | 119 | 9.0 | 15.0 | 0.00 | 0.00 | 0.00 | 100 | 1007.0 |
| 20260506144451 | 81 | 134 | 9.0 | 14.0 | 0.00 | 0.00 | 0.00 | 100 | 1007.1 |
| 20260506143951 | 81 | 146 | 9.0 | 13.0 | 0.00 | 0.00 | 0.00 | 100 | 1007.1 |
| 20260506143452 | 81 | 148 | 9.0 | 13.0 | 0.00 | 0.00 | 0.00 | 100 | 1006.9 |
| 20260506142951 | 81 | 119 | 9.0 | 13.0 | 0.00 | 0.00 | 0.00 | 100 | 1006.9 |
| 20260506141952 | 81 | 118 | 10.0 | 15.0 | 0.00 | 0.00 | 0.00 | 100 | 1007.0 |
| 20260506141452 | 81 | 116 | 10.0 | 15.0 | 0.00 | 0.00 | 0.00 | 100 | 1007.0 |
| 20260506140951 | 81 | 115 | 8.0 | 12.0 | 0.00 | 0.00 | 0.00 | 100 | 1007.2 |
| 20260506135952 | 80 | 107 | 8.0 | 11.0 | 0.00 | 0.00 | 0.00 | 100 | 1007.2 |
| 20260506134951 | 80 | 116 | 8.0 | 11.0 | 0.00 | 0.00 | 0.00 | 100 | 1006.9 |
| 20260506134451 | 80 | 105 | 7.0 | 11.0 | 0.00 | 0.00 | 0.00 | 100 | 1006.8 |
| 20260506133951 | 80 | 105 | 7.0 | 9.0 | 0.00 | 0.00 | 0.00 | 100 | 1006.9 |
| 20260506133452 | 80 | 130 | 7.0 | 11.0 | 0.00 | 0.00 | 0.00 | 100 | 1006.9 |
| 20260506132952 | 80 | 101 | 8.0 | 12.0 | 0.00 | 0.00 | 0.00 | 100 | 1006.8 |
| 20260506132451 | 80 | 105 | 7.0 | 12.0 | 0.00 | 0.00 | 0.00 | 100 | 1006.8 |
| 20260506131952 | 80 | 116 | 7.0 | 10.0 | 0.00 | 0.00 | 0.00 | 100 | 1006.8 |
| 20260506131452 | 80 | 105 | 7.0 | 10.0 | 0.00 | 0.00 | 0.00 | 100 | 1006.8 |
| 20260506130951 | 80 | 112 | 7.0 | 11.0 | 0.00 | 0.00 | 0.00 | 100 | 1006.8 |
| 20260506130451 | 80 | 104 | 6.0 | 11.0 | 0.00 | 0.00 | 0.00 | 100 | 1006.7 |
| 20260506125449 | 80 | 95 | 5.0 | 8.0 | 0.00 | 0.00 | 0.00 | 100 | 1006.7 |
| 20260506124949 | 80 | 97 | 6.0 | 10.0 | 0.00 | 0.00 | 0.00 | 100 | 1006.8 |
| 20260506124448 | 80 | 97 | 6.0 | 10.0 | 0.00 | 0.00 | 0.00 | 100 | 1006.6 |
| 20260506123948 | 80 | 84 | 6.0 | 8.0 | 0.00 | 0.00 | 0.00 | 100 | 1006.7 |
| 20260506122947 | 80 | 100 | 5.0 | 8.0 | 0.00 | 0.00 | 0.00 | 100 | 1006.8 |
| 20260506122448 | 80 | 109 | 5.0 | 8.0 | 0.00 | 0.00 | 0.00 | 100 | 1006.7 |
| 20260506121948 | 80 | 93 | 4.0 | 7.0 | 0.00 | 0.00 | 0.00 | 100 | 1006.7 |
| 20260506121448 | 80 | 104 | 5.0 | 7.0 | 0.00 | 0.00 | 0.00 | 100 | 1006.8 |
| 20260506120947 | 80 | 95 | 5.0 | 8.0 | 0.00 | 0.00 | 0.00 | 100 | 1006.7 |
| 20260506120448 | 80 | 101 | 5.0 | 8.0 | 0.00 | 0.00 | 0.00 | 100 | 1006.7 |
| 20260506115948 | 80 | 104 | 5.0 | 7.0 | 0.00 | 0.00 | 0.00 | 100 | 1006.5 |
| 20260506115448 | 80 | 102 | 5.0 | 7.0 | 0.00 | 0.00 | 0.00 | 100 | 1006.5 |
| 20260506114947 | 80 | 109 | 5.0 | 7.0 | 0.00 | 0.00 | 0.00 | 100 | 1006.5 |
| 20260506114447 | 80 | 109 | 5.0 | 7.0 | 0.00 | 0.00 | 0.00 | 100 | 1006.5 |
| 20260506113945 | 80 | 103 | 5.0 | 7.0 | 0.00 | 0.00 | 0.00 | 100 | 1006.4 |
| 20260506113446 | 80 | 111 | 4.0 | 7.0 | 0.00 | 0.00 | 0.00 | 100 | 1006.4 |
| 20260506112946 | 80 | 106 | 3.0 | 6.0 | 0.00 | 0.00 | 0.00 | 100 | 1006.4 |
| 20260506112446 | 80 | 104 | 4.0 | 6.0 | 0.00 | 0.00 | 0.00 | 100 | 1006.5 |
| 20260506111945 | 80 | 105 | 4.0 | 7.0 | 0.00 | 0.00 | 0.00 | 100 | 1006.4 |
| 20260506111445 | 80 | 101 | 4.0 | 7.0 | 0.00 | 0.00 | 0.00 | 100 | 1006.4 |
| 20260506110946 | 80 | 107 | 5.0 | 8.0 | 0.00 | 0.00 | 0.00 | 100 | 1006.5 |
| 20260506110446 | 80 | 116 | 5.0 | 8.0 | 0.00 | 0.00 | 0.00 | 100 | 1006.5 |
| 20260506105946 | 80 | 114 | 5.0 | 8.0 | 0.00 | 0.00 | 0.00 | 100 | 1006.4 |
| 20260506104944 | 80 | 114 | 5.0 | 8.0 | 0.00 | 0.00 | 0.00 | 100 | 1006.4 |
| 20260506104444 | 80 | 113 | 5.0 | 8.0 | 0.00 | 0.00 | 0.00 | 100 | 1006.4 |
| 20260506103944 | 80 | 119 | 5.0 | 7.0 | 0.00 | 0.00 | 0.00 | 100 | 1006.4 |
| 20260506103444 | 80 | 122 | 5.0 | 9.0 | 0.00 | 0.00 | 0.00 | 100 | 1006.5 |
| 20260506102944 | 80 | 129 | 4.0 | 9.0 | 0.00 | 0.00 | 0.00 | 100 | 1006.5 |
| 20260506101944 | 80 | 121 | 4.0 | 9.0 | 0.00 | 0.00 | 0.00 | 100 | 1006.6 |
| 20260506101444 | 80 | 119 | 5.0 | 9.0 | 0.00 | 0.00 | 0.00 | 100 | 1006.6 |
| 20260506100945 | 80 | 126 | 5.0 | 8.0 | 0.00 | 0.00 | 0.00 | 100 | 1006.5 |
| 20260506095942 | 80 | 144 | 5.0 | 8.0 | 0.00 | 0.00 | 0.00 | 100 | 1006.5 |
| 20260506095442 | 80 | 118 | 5.0 | 9.0 | 0.00 | 0.00 | 0.00 | 100 | 1006.4 |
| 20260506094942 | 80 | 117 | 5.0 | 9.0 | 0.00 | 0.00 | 0.00 | 100 | 1006.4 |
| 20260506094442 | 80 | 126 | 5.0 | 9.0 | 0.00 | 0.00 | 0.00 | 100 | 1006.4 |
| 20260506093942 | 80 | 125 | 5.0 | 10.0 | 0.00 | 0.00 | 0.00 | 100 | 1006.3 |
| 20260506093442 | 80 | 133 | 6.0 | 10.0 | 0.00 | 0.00 | 0.00 | 100 | 1006.1 |
| 20260506092942 | 80 | 119 | 5.0 | 9.0 | 0.00 | 0.00 | 0.00 | 100 | 1006.1 |
| 20260506092442 | 80 | 119 | 6.0 | 10.0 | 0.00 | 0.00 | 0.00 | 100 | 1006.2 |
| 20260506091942 | 80 | 126 | 7.0 | 10.0 | 0.00 | 0.00 | 0.00 | 100 | 1006.2 |
| 20260506090939 | 80 | 132 | 7.0 | 12.0 | 0.00 | 0.00 | 0.00 | 100 | 1006.2 |
| 20260506090440 | 80 | 111 | 7.0 | 12.0 | 0.00 | 0.00 | 0.00 | 100 | 1006.1 |
| 20260506085940 | 80 | 126 | 8.0 | 12.0 | 0.00 | 0.00 | 0.00 | 100 | 1006.1 |
| 20260506085440 | 80 | 124 | 8.0 | 14.0 | 0.00 | 0.00 | 0.00 | 100 | 1006.0 |
| 20260506084940 | 80 | 128 | 8.0 | 14.0 | 0.00 | 0.00 | 0.00 | 100 | 1006.1 |
| 20260506084439 | 80 | 148 | 8.0 | 11.0 | 0.00 | 0.00 | 0.00 | 100 | 1006.0 |
| 20260506083939 | 80 | 118 | 7.0 | 12.0 | 0.00 | 0.00 | 0.00 | 100 | 1006.1 |
| 20260506083440 | 80 | 142 | 7.0 | 12.0 | 0.00 | 0.00 | 0.00 | 100 | 1006.1 |
| 20260506082940 | 80 | 121 | 7.0 | 11.0 | 0.00 | 0.00 | 0.00 | 100 | 1006.1 |
| 20260506080936 | 80 | 109 | 8.0 | 13.0 | 0.00 | 0.00 | 0.00 | 100 | 1006.1 |
| 20260506080436 | 80 | 117 | 7.0 | 13.0 | 0.00 | 0.00 | 0.00 | 100 | 1006.2 |
| 20260506073436 | 80 | 128 | 7.0 | 15.0 | 0.00 | 0.00 | 0.00 | 100 | 1006.5 |
| 20260506072936 | 80 | 155 | 7.0 | 12.0 | 0.00 | 0.00 | 0.00 | 100 | 1006.6 |
| 20260506071934 | 80 | 161 | 6.0 | 11.0 | 0.00 | 0.00 | 0.00 | 100 | 1006.9 |
| 20260506071434 | 80 | 130 | 6.0 | 12.0 | 0.00 | 0.00 | 0.00 | 100 | 1006.9 |
| 20260506070934 | 80 | 146 | 6.0 | 13.0 | 0.00 | 0.00 | 0.00 | 100 | 1007.0 |
| 20260506070434 | 80 | 144 | 7.0 | 13.0 | 0.00 | 0.00 | 0.00 | 100 | 1006.9 |
| 20260506062434 | 80 | 160 | 8.0 | 15.0 | 0.00 | 0.00 | 0.00 | 100 | 1007.1 |
| 20260506061934 | 80 | 128 | 8.0 | 15.0 | 0.00 | 0.00 | 0.00 | 100 | 1007.2 |
| 20260506061432 | 80 | 131 | 8.0 | 15.0 | 0.00 | 0.00 | 0.00 | 100 | 1007.3 |
| 20260506060932 | 80 | 146 | 8.0 | 15.0 | 0.00 | 0.00 | 0.00 | 100 | 1007.2 |
| 20260506060433 | 80 | 137 | 8.0 | 13.0 | 0.00 | 0.00 | 0.00 | 100 | 1007.2 |
| 20260506050929 | 80 | 161 | 7.0 | 12.0 | 0.00 | 0.00 | 0.00 | 100 | 1007.1 |
| 20260506050427 | 80 | 152 | 9.0 | 15.0 | 0.00 | 0.00 | 0.00 | 100 | 1007.0 |
| 20260506044927 | 80 | 121 | 8.0 | 14.0 | 0.00 | 0.00 | 0.00 | 100 | 1007.2 |
| 20260506043427 | 80 | 132 | 9.0 | 13.0 | 0.00 | 0.00 | 0.00 | 100 | 1007.1 |
| 20260506042927 | 80 | 146 | 10.0 | 19.0 | 0.00 | 0.00 | 0.00 | 100 | 1007.2 |
| 20260506041926 | 81 | 138 | 9.0 | 14.0 | 0.00 | 0.00 | 0.00 | 100 | 1007.2 |
| 20260506040927 | 81 | 138 | 8.0 | 16.0 | 0.00 | 0.00 | 0.00 | 100 | 1007.2 |
| 20260506035927 | 81 | 148 | 9.0 | 15.0 | 0.00 | 0.00 | 0.00 | 100 | 1007.1 |
| 20260506035427 | 81 | 146 | 9.0 | 16.0 | 0.00 | 0.00 | 0.00 | 100 | 1007.2 |
| 20260506034926 | 81 | 147 | 8.0 | 16.0 | 0.00 | 0.00 | 0.00 | 100 | 1007.0 |
| 20260506034426 | 81 | 134 | 9.0 | 18.0 | 0.00 | 0.00 | 0.00 | 100 | 1007.0 |
| 20260506033927 | 81 | 150 | 10.0 | 18.0 | 0.00 | 0.00 | 0.00 | 100 | 1006.9 |
| 20260506033427 | 81 | 117 | 10.0 | 18.0 | 0.00 | 0.00 | 0.00 | 100 | 1006.9 |
| 20260506032926 | 81 | 113 | 9.0 | 18.0 | 0.00 | 0.00 | 0.00 | 100 | 1006.9 |
| 20260506032426 | 81 | 155 | 9.0 | 16.0 | 0.00 | 0.00 | 0.00 | 100 | 1006.7 |
| 20260506031427 | 80 | 130 | 8.0 | 15.0 | 0.00 | 0.00 | 0.00 | 100 | 1006.7 |
| 20260506030926 | 80 | 129 | 9.0 | 15.0 | 0.00 | 0.00 | 0.00 | 100 | 1006.6 |
| 20260506025926 | 80 | 150 | 10.0 | 16.0 | 0.00 | 0.00 | 0.00 | 100 | 1006.4 |
| 20260506025427 | 80 | 131 | 9.0 | 18.0 | 0.00 | 0.00 | 0.00 | 100 | 1006.4 |
| 20260506024926 | 80 | 140 | 9.0 | 18.0 | 0.00 | 0.00 | 0.00 | 100 | 1006.4 |
| 20260506024426 | 80 | 120 | 10.0 | 16.0 | 0.00 | 0.00 | 0.00 | 100 | 1006.3 |
| 20260506023927 | 80 | 119 | 11.0 | 19.0 | 0.00 | 0.00 | 0.00 | 100 | 1006.2 |
| 20260506022926 | 80 | 124 | 10.0 | 14.0 | 0.00 | 0.00 | 0.00 | 100 | 1006.1 |
| 20260506022426 | 81 | 123 | 10.0 | 16.0 | 0.00 | 0.00 | 0.00 | 100 | 1006.1 |
| 20260506021927 | 81 | 121 | 11.0 | 18.0 | 0.00 | 0.00 | 0.00 | 100 | 1006.0 |
| 20260506021427 | 81 | 144 | 11.0 | 18.0 | 0.00 | 0.00 | 0.00 | 100 | 1005.9 |
| 20260506020926 | 81 | 121 | 11.0 | 18.0 | 0.00 | 0.00 | 0.00 | 100 | 1005.9 |
| 20260506020427 | 81 | 133 | 10.0 | 18.0 | 0.00 | 0.00 | 0.00 | 100 | 1005.9 |
| 20260506015927 | 81 | 117 | 11.0 | 18.0 | 0.00 | 0.00 | 0.00 | 100 | 1005.9 |
| 20260506015428 | 81 | 134 | 11.0 | 16.0 | 0.00 | 0.00 | 0.00 | 100 | 1005.9 |
| 20260506014927 | 81 | 113 | 10.0 | 18.0 | 0.00 | 0.00 | 0.00 | 100 | 1005.9 |
| 20260506014428 | 81 | 126 | 10.0 | 18.0 | 0.00 | 0.00 | 0.00 | 100 | 1005.8 |
| 20260506013927 | 81 | 110 | 11.0 | 18.0 | 0.00 | 0.00 | 0.00 | 100 | 1005.5 |
| 20260506013428 | 81 | 113 | 11.0 | 16.0 | 0.00 | 0.00 | 0.00 | 100 | 1005.5 |
| 20260506012928 | 81 | 111 | 12.0 | 19.0 | 0.00 | 0.00 | 0.00 | 100 | 1005.4 |
| 20260506012427 | 81 | 119 | 13.0 | 21.0 | 0.00 | 0.00 | 0.00 | 100 | 1005.3 |
| 20260506011928 | 81 | 126 | 11.0 | 21.0 | 0.00 | 0.00 | 0.00 | 100 | 1005.3 |
| 20260506011428 | 81 | 118 | 11.0 | 18.0 | 0.00 | 0.00 | 0.00 | 100 | 1005.2 |
| 20260506010927 | 81 | 127 | 12.0 | 18.0 | 0.00 | 0.00 | 0.00 | 100 | 1005.1 |
| 20260506005928 | 81 | 108 | 11.0 | 20.0 | 0.00 | 0.00 | 0.00 | 100 | 1005.0 |
| 20260506005425 | 81 | 117 | 11.0 | 20.0 | 0.00 | 0.00 | 0.00 | 100 | 1005.0 |
| 20260506004924 | 81 | 153 | 12.0 | 19.0 | 0.00 | 0.00 | 0.00 | 100 | 1004.9 |
| 20260506004424 | 81 | 127 | 13.0 | 22.0 | 0.00 | 0.00 | 0.00 | 100 | 1004.9 |
| 20260506003925 | 81 | 128 | 13.0 | 22.0 | 0.00 | 0.00 | 0.00 | 100 | 1004.9 |
| 20260506003424 | 81 | 137 | 13.0 | 20.0 | 0.00 | 0.00 | 0.00 | 100 | 1004.8 |
| 20260506002925 | 82 | 114 | 12.0 | 20.0 | 0.00 | 0.00 | 0.00 | 100 | 1004.7 |
| 20260506002425 | 82 | 128 | 13.0 | 20.0 | 0.00 | 0.00 | 0.00 | 100 | 1004.8 |
| 20260506001424 | 82 | 123 | 13.0 | 21.0 | 0.00 | 0.00 | 0.00 | 100 | 1004.8 |
| 20260506000924 | 82 | 117 | 14.0 | 21.0 | 0.00 | 0.00 | 0.00 | 100 | 1004.8 |
| 20260505235923 | 82 | 132 | 14.0 | 23.0 | 0.00 | 0.00 | 0.00 | 100 | 1004.9 |
| 20260505235422 | 82 | 134 | 14.0 | 23.0 | 0.00 | 0.00 | 0.00 | 100 | 1004.8 |
| 20260505234423 | 83 | 128 | 15.0 | 23.0 | 0.00 | 0.00 | 0.00 | 100 | 1004.7 |
| 20260505233923 | 83 | 125 | 15.0 | 24.0 | 0.00 | 0.00 | 0.00 | 100 | 1004.7 |
| 20260505232923 | 83 | 128 | 13.0 | 22.0 | 0.00 | 0.00 | 0.00 | 100 | 1004.8 |
| 20260505232423 | 83 | 121 | 13.0 | 23.0 | 0.00 | 0.00 | 0.00 | 100 | 1005.0 |
| 20260505231922 | 83 | 121 | 13.0 | 23.0 | 0.00 | 0.00 | 0.00 | 100 | 1005.1 |
| 20260505230921 | 83 | 130 | 14.0 | 23.0 | 0.00 | 0.00 | 0.00 | 100 | 1005.1 |
| 20260505230421 | 83 | 132 | 13.0 | 21.0 | 0.00 | 0.00 | 0.00 | 100 | 1005.1 |
| 20260505225921 | 84 | 138 | 12.0 | 21.0 | 0.00 | 0.00 | 0.00 | 100 | 1005.2 |
| 20260505225420 | 84 | 131 | 12.0 | 20.0 | 0.00 | 0.00 | 0.00 | 100 | 1005.1 |
| 20260505224920 | 84 | 130 | 13.0 | 21.0 | 0.00 | 0.00 | 0.00 | 100 | 1005.2 |
| 20260505224421 | 84 | 134 | 13.0 | 22.0 | 0.00 | 0.00 | 0.00 | 100 | 1005.0 |
| 20260505223921 | 84 | 145 | 13.0 | 22.0 | 0.00 | 0.00 | 0.00 | 100 | 1005.1 |
| 20260505223421 | 84 | 132 | 12.0 | 21.0 | 0.00 | 0.00 | 0.00 | 100 | 1005.2 |
| 20260505222920 | 84 | 156 | 12.0 | 21.0 | 0.00 | 0.00 | 0.00 | 100 | 1005.2 |
| 20260505222419 | 84 | 130 | 12.0 | 21.0 | 0.00 | 0.00 | 0.00 | 100 | 1005.3 |
| 20260505221919 | 84 | 111 | 13.0 | 22.0 | 0.00 | 0.00 | 0.00 | 100 | 1005.2 |
| 20260505221419 | 84 | 128 | 13.0 | 22.0 | 0.00 | 0.00 | 0.00 | 100 | 1005.2 |
| 20260505220919 | 84 | 134 | 13.0 | 23.0 | 0.00 | 0.00 | 0.00 | 100 | 1005.2 |
| 20260505215919 | 84 | 161 | 14.0 | 26.0 | 0.00 | 0.00 | 0.00 | 100 | 1005.3 |
| 20260505215419 | 85 | 151 | 12.0 | 26.0 | 0.00 | 0.00 | 0.00 | 100 | 1005.3 |
| 20260505214419 | 85 | 119 | 13.0 | 23.0 | 0.00 | 0.00 | 0.00 | 100 | 1005.2 |
| 20260505213918 | 85 | 121 | 14.0 | 23.0 | 0.00 | 0.00 | 0.00 | 100 | 1005.3 |
| 20260505213417 | 85 | 137 | 13.0 | 22.0 | 0.00 | 0.00 | 0.00 | 100 | 1005.4 |
| 20260505212917 | 85 | 130 | 13.0 | 23.0 | 0.00 | 0.00 | 0.00 | 100 | 1005.6 |
| 20260505212417 | 84 | 154 | 13.0 | 25.0 | 0.00 | 0.00 | 0.00 | 100 | 1005.7 |
| 20260505211917 | 84 | 175 | 14.0 | 25.0 | 0.00 | 0.00 | 0.00 | 100 | 1005.8 |
| 20260505211417 | 84 | 146 | 13.0 | 23.0 | 0.00 | 0.00 | 0.00 | 100 | 1005.8 |
| 20260505210417 | 85 | 144 | 12.0 | 22.0 | 0.00 | 0.00 | 0.00 | 100 | 1006.0 |
| 20260505205917 | 84 | 173 | 12.0 | 21.0 | 0.00 | 0.00 | 0.00 | 100 | 1006.0 |
| 20260505204916 | 85 | 139 | 11.0 | 21.0 | 0.00 | 0.00 | 0.00 | 100 | 1006.4 |
| 20260505204416 | 85 | 131 | 12.0 | 22.0 | 0.00 | 0.00 | 0.00 | 100 | 1006.4 |
| 20260505203916 | 85 | 160 | 12.0 | 22.0 | 0.00 | 0.00 | 0.00 | 100 | 1006.3 |
| 20260505203415 | 85 | 139 | 11.0 | 20.0 | 0.00 | 0.00 | 0.00 | 100 | 1006.4 |
| 20260505202915 | 85 | 163 | 11.0 | 20.0 | 0.00 | 0.00 | 0.00 | 100 | 1006.4 |
| 20260505201915 | 85 | 142 | 12.0 | 22.0 | 0.00 | 0.00 | 0.00 | 100 | 1006.6 |